Location: Almena City Lake
(39.8850°N, 99.6804°W)
Time: 06:17:35
(UTC+00:00)

STARLINK-21 - Pass Details

Date: 18 February 2020
Orbit: 529 x 531 km, 53.0° (Epoch: 28 March)

Event Time Altitude Azimuth Distance (km) Brightness Sun altitude
Rises 01:35:54 0° 225° (SW) 2,652 7.9 -15.8°
Reaches altitude 10° 01:38:06 10° 224° (SW) 1,767 6.9 -16.2°
Maximum altitude 01:42:06 78° 139° (SE) 546 3.4 -17.0°
Enters shadow 01:43:45 34° 58° (ENE) 885 4.2 -17.3°
